Time,TemperatureF,DewpointF,PressureIn,WindDirection,WindDirectionDegrees,WindSpeedMPH,WindSpeedGustMPH,Humidity,HourlyPrecipIn,Conditions,Clouds,dailyrainin,SoftwareType,DateUTC
2013-02-12 00:00:00,16.1,-0.6,30.16,WSW,252,13.8,13.8,47,0.00,RA,,0.00,WeatherDisplay:10.37,2013-02-12 07:00:00,
2013-02-12 00:05:00,15.9,-0.4,30.16,West,278,10.4,10.4,48,0.00,RA,,0.00,WeatherDisplay:10.37,2013-02-12 07:05:00,
2013-02-12 00:10:00,16.1,-0.6,30.16,SW,235,11.5,11.5,47,0.00,CLR,,0.00,WeatherDisplay:10.37,2013-02-12 07:10:00,
2013-02-12 00:15:00,16.2,-1.0,30.18,WSW,245,11.5,11.5,46,0.00,CLR,,0.00,WeatherDisplay:10.37,2013-02-12 07:15:00,
2013-02-12 00:20:00,16.1,-1.1,30.18,WSW,252,10.4,10.4,46,0.00,CLR,,0.00,WeatherDisplay:10.37,2013-02-12 07:20:00,
2013-02-12 00:25:00,16.1,-1.1,30.18,WSW,252,13.8,13.8,46,0.00,CLR,,0.00,WeatherDisplay:10.37,2013-02-12 07:25:00,
2013-02-12 00:30:00,16.2,-1.5,30.18,WSW,241,12.7,12.7,45,0.00,CLR,,0.00,WeatherDisplay:10.37,2013-02-12 07:30:00,
2013-02-12 00:35:00,16.4,-1.7,30.18,WSW,244,11.5,11.5,44,0.00,CLR,,0.00,WeatherDisplay:10.37,2013-02-12 07:35:00,
2013-02-12 00:40:00,16.4,-2.2,30.18,WSW,241,13.8,13.8,43,0.00,CLR,,0.00,WeatherDisplay:10.37,2013-02-12 07:40:00,
2013-02-12 00:45:00,16.4,-2.2,30.18,SW,227,11.5,11.5,43,0.00,CLR,,0.00,WeatherDisplay:10.37,2013-02-12 07:45:00,
2013-02-12 00:50:00,16.2,-2.4,30.18,SW,234,11.5,11.5,43,0.00,CLR,,0.00,WeatherDisplay:10.37,2013-02-12 07:50:00,
2013-02-12 00:55:00,16.1,-2.0,30.18,WSW,258,11.5,11.5,44,0.00,CLR,,0.00,WeatherDisplay:10.37,2013-02-12 07:55:00,
2013-02-12 01:00:00,15.7,-2.4,30.18,SW,234,11.5,11.5,44,0.00,CLR,,0.00,WeatherDisplay:10.37,2013-02-12 08:00:00,
2013-02-12 01:05:00,15.9,-1.7,30.18,SW,232,13.8,13.8,45,0.00,CLR,,0.00,WeatherDisplay:10.37,2013-02-12 08:05:00,
2013-02-12 01:10:00,15.9,-1.7,30.18,WSW,256,12.7,12.7,45,0.00,CLR,,0.00,WeatherDisplay:10.37,2013-02-12 08:10:00,
2013-02-12 01:15:00,15.9,-1.7,30.17,WSW,242,13.8,13.8,45,0.00,CLR,,0.00,WeatherDisplay:10.37,2013-02-12 08:15:00,
2013-02-12 01:20:00,15.9,-2.2,30.17,SW,225,17.3,17.3,44,0.00,CLR,,0.00,WeatherDisplay:10.37,2013-02-12 08:20:00,
2013-02-12 01:25:00,15.7,-2.4,30.17,West,276,13.8,13.8,44,0.00,CLR,,0.00,WeatherDisplay:10.37,2013-02-12 08:25:00,
2013-02-12 01:30:00,15.9,-2.7,30.17,West,261,13.8,13.8,43,0.00,CLR,,0.00,WeatherDisplay:10.37,2013-02-12 08:30:00,
2013-02-12 01:35:00,15.9,-2.2,30.18,WNW,286,12.7,12.7,44,0.00,CLR,,0.00,WeatherDisplay:10.37,2013-02-12 08:35:00,
2013-02-12 01:40:00,15.9,-2.2,30.18,SW,232,17.3,17.3,44,0.00,CLR,,0.00,WeatherDisplay:10.37,2013-02-12 08:40:00,
2013-02-12 01:45:00,16.2,-2.4,30.18,SW,234,19.6,19.6,43,0.00,CLR,,0.00,WeatherDisplay:10.37,2013-02-12 08:45:00,
2013-02-12 01:50:00,16.1,-2.5,30.18,SW,234,17.3,17.3,43,0.00,CLR,,0.00,WeatherDisplay:10.37,2013-02-12 08:50:00,
2013-02-12 01:55:00,15.9,-2.2,30.18,West,268,12.7,12.7,44,0.00,CLR,,0.00,WeatherDisplay:10.37,2013-02-12 08:55:00,
2013-02-12 02:00:00,15.7,-2.4,30.18,WSW,238,13.8,13.8,44,0.00,CLR,,0.00,WeatherDisplay:10.37,2013-02-12 09:00:00,
2013-02-12 02:05:00,15.7,-2.9,30.18,WSW,249,11.5,11.5,43,0.00,CLR,,0.00,WeatherDisplay:10.37,2013-02-12 09:05:00,
2013-02-12 02:10:00,15.9,-2.7,30.18,West,264,11.5,11.5,43,0.00,CLR,,0.00,WeatherDisplay:10.37,2013-02-12 09:10:00,
2013-02-12 02:15:00,15.7,-2.9,30.20,West,268,13.8,13.8,43,0.00,CLR,,0.00,WeatherDisplay:10.37,2013-02-12 09:15:00,
2013-02-12 02:20:00,15.6,-3.0,30.20,WSW,237,17.3,17.3,43,0.00,CLR,,0.00,WeatherDisplay:10.37,2013-02-12 09:20:00,
2013-02-12 02:25:00,15.6,-3.0,30.20,WSW,237,18.4,18.4,43,0.00,CLR,,0.00,WeatherDisplay:10.37,2013-02-12 09:25:00,
2013-02-12 02:30:00,15.6,-3.0,30.19,WSW,240,19.6,19.6,43,0.00,CLR,,0.00,WeatherDisplay:10.37,2013-02-12 09:30:00,
2013-02-12 02:35:00,15.6,-3.5,30.19,SW,232,20.7,20.7,42,0.00,CLR,,0.00,WeatherDisplay:10.37,2013-02-12 09:35:00,
2013-02-12 02:40:00,15.6,-3.5,30.19,West,262,13.8,13.8,42,0.00,CLR,,0.00,WeatherDisplay:10.37,2013-02-12 09:40:00,
2013-02-12 02:45:00,15.6,-4.0,30.19,WSW,255,17.3,17.3,41,0.00,CLR,,0.00,WeatherDisplay:10.37,2013-02-12 09:45:00,
2013-02-12 02:50:00,15.7,-3.9,30.19,WSW,255,19.6,19.6,41,0.00,CLR,,0.00,WeatherDisplay:10.37,2013-02-12 09:50:00,
2013-02-12 02:55:00,15.7,-4.4,30.19,WSW,254,19.6,19.6,40,0.00,CLR,,0.00,WeatherDisplay:10.37,2013-02-12 09:55:00,
2013-02-12 03:00:00,15.6,-4.0,30.19,SW,231,18.4,18.4,41,0.00,CLR,,0.00,WeatherDisplay:10.37,2013-02-12 10:00:00,
2013-02-12 03:05:00,15.6,-5.0,30.19,SW,225,17.3,17.3,39,0.00,CLR,,0.00,WeatherDisplay:10.37,2013-02-12 10:05:00,
2013-02-12 03:10:00,15.6,-4.5,30.19,SW,234,13.0,13.0,40,0.00,CLR,,0.00,WeatherDisplay:10.37,2013-02-12 10:10:00,
2013-02-12 03:15:00,15.9,-5.3,30.19,SW,227,19.6,19.6,38,0.00,CLR,,0.00,WeatherDisplay:10.37,2013-02-12 10:15:00,
2013-02-12 03:20:00,15.6,-5.0,30.19,WSW,251,16.1,16.1,39,0.00,CLR,,0.00,WeatherDisplay:10.37,2013-02-12 10:20:00,
2013-02-12 03:25:00,15.7,-5.5,30.19,SW,225,20.7,20.7,38,0.00,CLR,,0.00,WeatherDisplay:10.37,2013-02-12 10:25:00,
2013-02-12 03:30:00,15.9,-5.3,30.19,SSW,213,16.1,16.1,38,0.00,CLR,,0.00,WeatherDisplay:10.37,2013-02-12 10:30:00,
2013-02-12 03:35:00,15.6,-5.5,30.19,SW,230,18.4,18.4,38,0.00,CLR,,0.00,WeatherDisplay:10.37,2013-02-12 10:35:00,
2013-02-12 03:40:00,15.7,-5.5,30.19,WSW,242,16.1,16.1,38,0.00,CLR,,0.00,WeatherDisplay:10.37,2013-02-12 10:40:00,
2013-02-12 03:45:00,15.7,-6.0,30.19,SW,225,17.3,17.3,37,0.00,CLR,,0.00,WeatherDisplay:10.37,2013-02-12 10:45:00,
2013-02-12 03:50:00,15.9,-5.8,30.19,SW,217,24.2,24.2,37,0.00,CLR,,0.00,WeatherDisplay:10.37,2013-02-12 10:50:00,
2013-02-12 03:55:00,15.9,-5.8,30.19,SW,220,20.7,20.7,37,0.00,CLR,,0.00,WeatherDisplay:10.37,2013-02-12 10:55:00,
2013-02-12 04:00:00,15.6,-5.5,30.20,SW,230,18.4,18.4,38,0.00,CLR,,0.00,WeatherDisplay:10.37,2013-02-12 11:00:00,
2013-02-12 04:05:00,15.6,-6.1,30.20,SW,230,19.6,19.6,37,0.00,CLR,,0.00,WeatherDisplay:10.37,2013-02-12 11:05:00,
2013-02-12 04:10:00,15.7,-6.6,30.20,SW,234,19.6,19.6,36,0.00,CLR,,0.00,WeatherDisplay:10.37,2013-02-12 11:10:00,
2013-02-12 04:15:00,15.6,-6.1,30.21,West,266,20.0,20.0,37,0.00,CLR,,0.00,WeatherDisplay:10.37,2013-02-12 11:15:00,
2013-02-12 04:20:00,15.6,-6.7,30.21,SW,216,19.6,19.6,36,0.00,CLR,,0.00,WeatherDisplay:10.37,2013-02-12 11:20:00,
2013-02-12 04:25:00,15.7,-7.2,30.21,WSW,237,19.6,19.6,35,0.00,CLR,,0.00,WeatherDisplay:10.37,2013-02-12 11:25:00,
2013-02-12 04:30:00,15.9,-7.0,30.21,SW,232,19.6,19.6,35,0.00,CLR,,0.00,WeatherDisplay:10.37,2013-02-12 11:30:00,
2013-02-12 04:35:00,16.1,-8.0,30.21,WSW,238,20.7,20.7,33,0.00,CLR,,0.00,WeatherDisplay:10.37,2013-02-12 11:35:00,
2013-02-12 04:40:00,15.7,-7.8,30.21,SW,225,19.6,19.6,34,0.00,CLR,,0.00,WeatherDisplay:10.37,2013-02-12 11:40:00,
2013-02-12 04:45:00,15.6,-7.8,30.21,WSW,237,18.4,18.4,34,0.00,CLR,,0.00,WeatherDisplay:10.37,2013-02-12 11:45:00,
2013-02-12 04:50:00,15.6,-8.5,30.21,West,272,18.4,18.4,33,0.00,CLR,,0.00,WeatherDisplay:10.37,2013-02-12 11:50:00,
2013-02-12 04:55:00,15.6,-8.5,30.21,West,278,20.7,20.7,33,0.00,CLR,,0.00,WeatherDisplay:10.37,2013-02-12 11:55:00,
2013-02-12 05:00:00,15.6,-9.7,30.21,WSW,244,16.1,16.1,31,0.00,CLR,,0.00,WeatherDisplay:10.37,2013-02-12 12:00:00,
2013-02-12 05:05:00,15.9,-9.5,30.22,SW,235,19.6,19.6,31,0.00,CLR,,0.00,WeatherDisplay:10.37,2013-02-12 12:05:00,
2013-02-12 05:10:00,15.6,-9.7,30.22,WSW,251,19.6,19.6,31,0.00,CLR,,0.00,WeatherDisplay:10.37,2013-02-12 12:10:00,
2013-02-12 05:15:00,15.6,-9.7,30.25,WSW,242,12.7,12.7,31,0.00,CLR,,0.00,WeatherDisplay:10.37,2013-02-12 12:15:00,
2013-02-12 05:20:00,15.4,-9.9,30.25,WNW,288,16.1,16.1,31,0.00,CLR,,0.00,WeatherDisplay:10.37,2013-02-12 12:20:00,
2013-02-12 05:25:00,15.2,-10.1,30.25,SW,232,13.8,13.8,31,0.00,CLR,,0.00,WeatherDisplay:10.37,2013-02-12 12:25:00,
2013-02-12 05:30:00,15.2,-10.1,30.25,SW,218,17.3,17.3,31,0.00,CLR,,0.00,WeatherDisplay:10.37,2013-02-12 12:30:00,
2013-02-12 05:35:00,15.2,-11.4,30.27,WSW,254,17.3,17.3,29,0.00,CLR,,0.00,WeatherDisplay:10.37,2013-02-12 12:35:00,
2013-02-12 05:40:00,15.2,-11.4,30.27,West,261,24.2,24.2,29,0.00,CLR,,0.00,WeatherDisplay:10.37,2013-02-12 12:40:00,
2013-02-12 05:45:00,15.4,-11.3,30.27,West,262,13.8,13.8,29,0.00,CLR,,0.00,WeatherDisplay:10.37,2013-02-12 12:45:00,
2013-02-12 05:50:00,15.4,-11.3,30.27,West,269,16.1,16.1,29,0.00,CLR,,0.00,WeatherDisplay:10.37,2013-02-12 12:50:00,
2013-02-12 05:55:00,15.6,-11.8,30.27,WSW,251,11.5,11.5,28,0.00,CLR,,0.00,WeatherDisplay:10.37,2013-02-12 12:55:00,
2013-02-12 06:00:00,15.4,-11.3,30.27,WSW,256,11.5,11.5,29,0.00,CLR,,0.00,WeatherDisplay:10.37,2013-02-12 13:00:00,
2013-02-12 06:05:00,15.2,-12.1,30.27,West,261,11.5,11.5,28,0.00,CLR,,0.00,WeatherDisplay:10.37,2013-02-12 13:05:00,
2013-02-12 06:10:00,15.2,-12.9,30.27,SW,216,12.7,12.7,27,0.00,CLR,,0.00,WeatherDisplay:10.37,2013-02-12 13:10:00,
2013-02-12 06:15:00,15.4,-12.0,30.31,West,273,13.8,13.8,28,0.00,CLR,,0.00,WeatherDisplay:10.37,2013-02-12 13:15:00,
2013-02-12 06:20:00,15.4,-12.7,30.31,WSW,247,14.0,14.0,27,0.00,CLR,,0.00,WeatherDisplay:10.37,2013-02-12 13:20:00,
2013-02-12 06:25:00,15.4,-12.0,30.31,WSW,241,11.5,11.5,28,0.00,CLR,,0.00,WeatherDisplay:10.37,2013-02-12 13:25:00,
2013-02-12 06:30:00,15.2,-12.1,30.31,SW,234,12.7,12.7,28,0.00,CLR,,0.00,WeatherDisplay:10.37,2013-02-12 13:30:00,
2013-02-12 06:35:00,15.4,-12.0,30.31,West,269,16.1,16.1,28,0.00,CLR,,0.00,WeatherDisplay:10.37,2013-02-12 13:35:00,
2013-02-12 06:40:00,15.2,-12.1,30.31,WSW,244,11.5,11.5,28,0.00,CLR,,0.00,WeatherDisplay:10.37,2013-02-12 13:40:00,
2013-02-12 06:45:00,15.4,-12.7,30.30,SW,221,14.0,14.0,27,0.00,CLR,,0.00,WeatherDisplay:10.37,2013-02-12 13:45:00,
2013-02-12 06:50:00,15.6,-13.3,30.30,SW,234,18.4,18.4,26,0.00,CLR,,0.00,WeatherDisplay:10.37,2013-02-12 13:50:00,
2013-02-12 06:55:00,15.6,-13.3,30.30,WSW,247,13.8,13.8,26,0.00,CLR,,0.00,WeatherDisplay:10.37,2013-02-12 13:55:00,
2013-02-12 07:00:00,15.6,-13.3,30.28,WSW,252,13.0,13.0,26,0.00,CLR,,0.00,WeatherDisplay:10.37,2013-02-12 14:00:00,
2013-02-12 07:05:00,15.6,-13.3,30.28,WSW,241,10.4,10.4,26,0.00,CLR,,0.00,WeatherDisplay:10.37,2013-02-12 14:05:00,
2013-02-12 07:10:00,15.4,-13.4,30.28,West,261,11.5,11.5,26,0.00,CLR,,0.00,WeatherDisplay:10.37,2013-02-12 14:10:00,
2013-02-12 07:15:00,15.9,-14.6,30.33,WSW,248,11.5,11.5,24,0.00,CLR,,0.00,WeatherDisplay:10.37,2013-02-12 14:15:00,
2013-02-12 07:20:00,16.2,-15.2,30.33,WSW,241,12.0,12.0,23,0.00,CLR,,0.00,WeatherDisplay:10.37,2013-02-12 14:20:00,
2013-02-12 07:25:00,16.5,-14.9,30.33,WSW,245,11.5,11.5,23,0.00,CLR,,0.00,WeatherDisplay:10.37,2013-02-12 14:25:00,
2013-02-12 07:30:00,16.9,-15.5,30.31,WSW,245,7.0,7.0,22,0.00,CLR,,0.00,WeatherDisplay:10.37,2013-02-12 14:30:00,
2013-02-12 07:35:00,17.3,-15.1,30.31,West,262,6.9,6.9,22,0.00,CLR,,0.00,WeatherDisplay:10.37,2013-02-12 14:35:00,
2013-02-12 07:40:00,17.8,-15.6,30.31,WNW,283,6.9,6.9,21,0.00,CLR,,0.00,WeatherDisplay:10.37,2013-02-12 14:40:00,
2013-02-12 07:45:00,18.3,-15.2,30.31,West,278,8.1,8.1,21,0.00,CLR,,0.00,WeatherDisplay:10.37,2013-02-12 14:45:00,
2013-02-12 07:50:00,18.6,-14.9,30.31,SW,235,8.0,8.0,21,0.00,CLR,,0.00,WeatherDisplay:10.37,2013-02-12 14:50:00,
2013-02-12 07:55:00,19.2,-15.4,30.31,SW,214,10.4,10.4,20,0.00,CLR,,0.00,WeatherDisplay:10.37,2013-02-12 14:55:00,
2013-02-12 08:00:00,19.5,-15.1,30.31,West,268,14.0,14.0,20,0.00,CLR,,0.00,WeatherDisplay:10.37,2013-02-12 15:00:00,
2013-02-12 08:05:00,19.7,-14.0,30.29,WSW,244,11.5,11.5,21,0.00,CLR,,0.00,WeatherDisplay:10.37,2013-02-12 15:05:00,
2013-02-12 08:10:00,20.0,-14.7,30.29,West,269,19.6,19.6,20,0.00,CLR,,0.00,WeatherDisplay:10.37,2013-02-12 15:10:00,
2013-02-12 08:15:00,20.3,-14.5,30.29,WSW,247,12.7,12.7,20,0.00,CLR,,0.00,WeatherDisplay:10.37,2013-02-12 15:15:00,
2013-02-12 08:20:00,20.6,-15.2,30.29,WSW,237,13.8,13.8,19,0.00,CLR,,0.00,WeatherDisplay:10.37,2013-02-12 15:20:00,
2013-02-12 08:25:00,21.3,-13.6,30.29,West,268,19.6,19.6,20,0.00,CLR,,0.00,WeatherDisplay:10.37,2013-02-12 15:25:00,
2013-02-12 08:30:00,21.8,-14.2,30.29,West,262,17.3,17.3,19,0.00,CLR,,0.00,WeatherDisplay:10.37,2013-02-12 15:30:00,
2013-02-12 08:35:00,22.2,-12.9,30.27,West,278,12.7,12.7,20,0.00,CLR,,0.00,WeatherDisplay:10.37,2013-02-12 15:35:00,
2013-02-12 08:40:00,22.4,-12.7,30.27,WSW,241,10.4,10.4,20,0.00,CLR,,0.00,WeatherDisplay:10.37,2013-02-12 15:40:00,
2013-02-12 08:45:00,22.4,-10.8,30.28,WSW,241,11.5,11.5,22,0.00,CLR,,0.00,WeatherDisplay:10.37,2013-02-12 15:45:00,
2013-02-12 08:50:00,22.9,-13.3,30.28,West,268,13.8,13.8,19,0.00,CLR,,0.00,WeatherDisplay:10.37,2013-02-12 15:50:00,
2013-02-12 08:55:00,23.8,-12.6,30.28,WSW,237,12.0,12.0,19,0.00,CLR,,0.00,WeatherDisplay:10.37,2013-02-12 15:55:00,
2013-02-12 09:00:00,24.2,-11.2,30.28,West,280,10.4,10.4,20,0.00,CLR,,0.00,WeatherDisplay:10.37,2013-02-12 16:00:00,
2013-02-12 09:05:00,24.5,-13.0,30.26,SW,230,11.5,11.5,18,0.00,CLR,,0.00,WeatherDisplay:10.37,2013-02-12 16:05:00,
2013-02-12 09:10:00,24.8,-8.7,30.26,WSW,240,11.5,11.5,22,0.00,CLR,,0.00,WeatherDisplay:10.37,2013-02-12 16:10:00,
2013-02-12 09:15:00,24.7,-9.8,30.26,West,276,13.8,13.8,21,0.00,CLR,,0.00,WeatherDisplay:10.37,2013-02-12 16:15:00,
2013-02-12 09:20:00,24.8,-7.0,30.26,West,259,10.4,10.4,24,0.00,CLR,,0.00,WeatherDisplay:10.37,2013-02-12 16:20:00,
2013-02-12 09:25:00,25.0,-7.7,30.26,WSW,258,11.5,11.5,23,0.00,CLR,,0.00,WeatherDisplay:10.37,2013-02-12 16:25:00,
2013-02-12 09:30:00,25.3,-8.3,30.26,SW,214,16.1,16.1,22,0.00,CLR,,0.00,WeatherDisplay:10.37,2013-02-12 16:30:00,
2013-02-12 09:35:00,25.6,-7.1,30.26,SSW,211,11.5,11.5,23,0.00,CLR,,0.00,WeatherDisplay:10.37,2013-02-12 16:35:00,
2013-02-12 09:40:00,26.0,-8.7,30.26,WSW,237,11.5,11.5,21,0.00,CLR,,0.00,WeatherDisplay:10.37,2013-02-12 16:40:00,
2013-02-12 09:45:00,26.4,-9.3,30.26,West,259,11.5,11.5,20,0.00,CLR,,0.00,WeatherDisplay:10.37,2013-02-12 16:45:00,
2013-02-12 09:50:00,27.0,-8.8,30.26,West,266,8.1,8.1,20,0.00,CLR,,0.00,WeatherDisplay:10.37,2013-02-12 16:50:00,
2013-02-12 09:55:00,27.5,-7.4,30.26,WSW,258,10.4,10.4,21,0.00,CLR,,0.00,WeatherDisplay:10.37,2013-02-12 16:55:00,
2013-02-12 10:00:00,27.9,-4.3,30.26,SW,223,10.4,10.4,24,0.00,CLR,,0.00,WeatherDisplay:10.37,2013-02-12 17:00:00,
2013-02-12 10:05:00,28.2,-4.9,30.24,SW,232,6.9,6.9,23,0.00,CLR,,0.00,WeatherDisplay:10.37,2013-02-12 17:05:00,
2013-02-12 10:10:00,28.5,-6.6,30.24,West,261,10.4,10.4,21,0.00,CLR,,0.00,WeatherDisplay:10.37,2013-02-12 17:10:00,
2013-02-12 10:15:00,29.4,-1.3,30.15,South,170,5.8,5.8,26,0.00,CLR,,0.00,WeatherDisplay:10.37,2013-02-12 17:15:00,
2013-02-12 10:20:00,29.7,-1.9,30.15,WSW,249,11.5,11.5,25,0.00,CLR,,0.00,WeatherDisplay:10.37,2013-02-12 17:20:00,
2013-02-12 10:25:00,29.7,-3.7,30.15,WNW,286,5.8,5.8,23,0.00,CLR,,0.00,WeatherDisplay:10.37,2013-02-12 17:25:00,
2013-02-12 10:30:00,30.4,1.1,30.15,WSW,255,6.9,6.9,28,0.00,CLR,,0.00,WeatherDisplay:10.37,2013-02-12 17:30:00,
2013-02-12 10:35:00,30.7,0.6,30.13,SSW,204,12.7,12.7,27,0.00,CLR,,0.00,WeatherDisplay:10.37,2013-02-12 17:35:00,
2013-02-12 10:40:00,30.7,0.6,30.13,SW,225,8.1,8.1,27,0.00,CLR,,0.00,WeatherDisplay:10.37,2013-02-12 17:40:00,
2013-02-12 10:45:00,31.3,1.1,30.13,West,264,11.5,11.5,27,0.00,CLR,,0.00,WeatherDisplay:10.37,2013-02-12 17:45:00,
2013-02-12 10:50:00,31.3,1.1,30.13,SSW,208,11.5,11.5,27,0.00,CLR,,0.00,WeatherDisplay:10.37,2013-02-12 17:50:00,
2013-02-12 10:55:00,31.9,2.4,30.13,SW,227,11.5,11.5,28,0.00,CLR,,0.00,WeatherDisplay:10.37,2013-02-12 17:55:00,
2013-02-12 11:00:00,32.1,1.0,30.11,South,187,11.5,11.5,26,0.00,CLR,,0.00,WeatherDisplay:10.37,2013-02-12 18:00:00,
2013-02-12 11:05:00,32.1,1.0,30.11,SW,224,5.8,5.8,26,0.00,CLR,,0.00,WeatherDisplay:10.37,2013-02-12 18:05:00,
2013-02-12 11:10:00,32.1,1.0,30.11,WSW,247,5.8,5.8,26,0.00,CLR,,0.00,WeatherDisplay:10.37,2013-02-12 18:10:00,
2013-02-12 11:15:00,32.4,1.3,30.09,SSW,210,7.0,7.0,26,0.00,CLR,,0.00,WeatherDisplay:10.37,2013-02-12 18:15:00,
2013-02-12 11:20:00,32.7,-0.2,30.09,SSW,201,10.0,10.0,24,0.00,CLR,,0.00,WeatherDisplay:10.37,2013-02-12 18:20:00,
2013-02-12 11:25:00,32.8,-0.1,30.09,South,183,7.0,7.0,24,0.00,CLR,,0.00,WeatherDisplay:10.37,2013-02-12 18:25:00,
2013-02-12 11:30:00,33.7,2.4,30.09,South,189,11.5,11.5,26,0.00,CLR,,0.00,WeatherDisplay:10.37,2013-02-12 18:30:00,
2013-02-12 11:35:00,34.0,3.5,30.08,SSW,196,3.5,3.5,27,0.00,CLR,,0.00,WeatherDisplay:10.37,2013-02-12 18:35:00,
2013-02-12 11:40:00,34.7,1.5,30.08,South,175,6.9,6.9,24,0.00,CLR,,0.00,WeatherDisplay:10.37,2013-02-12 18:40:00,
2013-02-12 11:45:00,35.0,3.5,30.07,SSE,163,11.5,11.5,26,0.00,CLR,,0.00,WeatherDisplay:10.37,2013-02-12 18:45:00,
2013-02-12 11:50:00,34.9,3.4,30.07,SSE,148,2.3,2.3,26,0.00,CLR,,0.00,WeatherDisplay:10.37,2013-02-12 18:50:00,
2013-02-12 11:55:00,35.5,2.2,30.07,SSW,210,5.8,5.8,24,0.00,CLR,,0.00,WeatherDisplay:10.37,2013-02-12 18:55:00,
2013-02-12 12:00:00,35.5,3.1,30.05,SW,220,2.3,2.3,25,0.00,CLR,,0.00,WeatherDisplay:10.37,2013-02-12 19:00:00,
2013-02-12 12:05:00,35.5,2.2,30.05,South,186,10.4,10.4,24,0.00,CLR,,0.00,WeatherDisplay:10.37,2013-02-12 19:05:00,
2013-02-12 12:10:00,35.6,2.3,30.05,South,176,4.6,4.6,24,0.00,CLR,,0.00,WeatherDisplay:10.37,2013-02-12 19:10:00,
2013-02-12 12:15:00,36.2,3.7,30.05,WSW,241,7.0,7.0,25,0.00,CLR,,0.00,WeatherDisplay:10.37,2013-02-12 19:15:00,
2013-02-12 12:20:00,36.6,3.1,30.05,West,269,7.0,7.0,24,0.00,CLR,,0.00,WeatherDisplay:10.37,2013-02-12 19:20:00,
2013-02-12 12:25:00,35.9,2.5,30.05,WSW,237,10.4,10.4,24,0.00,CLR,,0.00,WeatherDisplay:10.37,2013-02-12 19:25:00,
2013-02-12 12:30:00,35.9,2.5,30.03,SSW,203,11.5,11.5,24,0.00,CLR,,0.00,WeatherDisplay:10.37,2013-02-12 19:30:00,
2013-02-12 12:35:00,35.6,4.8,30.03,SSW,193,8.1,8.1,27,0.00,CLR,,0.00,WeatherDisplay:10.37,2013-02-12 19:35:00,
2013-02-12 12:40:00,35.8,2.5,30.03,South,184,11.5,11.5,24,0.00,CLR,,0.00,WeatherDisplay:10.37,2013-02-12 19:40:00,
2013-02-12 12:45:00,35.8,2.5,30.03,South,176,10.4,10.4,24,0.00,CLR,,0.00,WeatherDisplay:10.37,2013-02-12 19:45:00,
2013-02-12 12:50:00,35.9,4.3,30.03,SSW,211,13.0,13.0,26,0.00,CLR,,0.00,WeatherDisplay:10.37,2013-02-12 19:50:00,
2013-02-12 12:55:00,35.6,1.4,30.03,SSW,213,10.4,10.4,23,0.00,CLR,,0.00,WeatherDisplay:10.37,2013-02-12 19:55:00,
2013-02-12 13:00:00,35.8,1.5,30.03,SSW,196,5.8,5.8,23,0.00,CLR,,0.00,WeatherDisplay:10.37,2013-02-12 20:00:00,
2013-02-12 13:05:00,36.0,1.7,30.03,SW,221,11.5,11.5,23,0.00,CLR,,0.00,WeatherDisplay:10.37,2013-02-12 20:05:00,
2013-02-12 13:10:00,36.3,2.0,30.03,SSE,158,6.9,6.9,23,0.00,CLR,,0.00,WeatherDisplay:10.37,2013-02-12 20:10:00,
2013-02-12 13:15:00,36.6,1.3,30.03,South,182,6.9,6.9,22,0.00,CLR,,0.00,WeatherDisplay:10.37,2013-02-12 20:15:00,
2013-02-12 13:20:00,36.2,0.9,30.03,SE,139,2.3,2.3,22,0.00,CLR,,0.00,WeatherDisplay:10.37,2013-02-12 20:20:00,
2013-02-12 13:25:00,37.0,2.6,30.03,SE,128,3.5,3.5,23,0.00,CLR,,0.00,WeatherDisplay:10.37,2013-02-12 20:25:00,
2013-02-12 13:30:00,37.5,3.9,30.03,ESE,103,4.6,4.6,24,0.00,CLR,,0.00,WeatherDisplay:10.37,2013-02-12 20:30:00,
2013-02-12 13:35:00,37.6,2.1,30.01,SE,142,7.0,7.0,22,0.00,CLR,,0.00,WeatherDisplay:10.37,2013-02-12 20:35:00,
2013-02-12 13:40:00,37.2,0.8,30.01,SE,128,11.5,11.5,21,0.00,CLR,,0.00,WeatherDisplay:10.37,2013-02-12 20:40:00,
2013-02-12 13:45:00,36.2,-0.1,30.03,ESE,115,6.9,6.9,21,0.00,CLR,,0.00,WeatherDisplay:10.37,2013-02-12 20:45:00,
2013-02-12 13:50:00,36.5,1.2,30.03,East,91,10.4,10.4,22,0.00,CLR,,0.00,WeatherDisplay:10.37,2013-02-12 20:50:00,
2013-02-12 13:55:00,35.9,0.7,30.03,ENE,76,6.9,6.9,22,0.00,CLR,,0.00,WeatherDisplay:10.37,2013-02-12 20:55:00,
2013-02-12 14:00:00,35.2,0.1,30.05,NNE,12,10.4,10.4,22,0.00,CLR,,0.00,WeatherDisplay:10.37,2013-02-12 21:00:00,
2013-02-12 14:05:00,34.7,-0.3,30.05,East,93,6.9,6.9,22,0.00,CLR,,0.00,WeatherDisplay:10.37,2013-02-12 21:05:00,
2013-02-12 14:10:00,33.8,-1.1,30.05,ESE,118,3.5,3.5,22,0.00,CLR,,0.00,WeatherDisplay:10.37,2013-02-12 21:10:00,
2013-02-12 14:15:00,34.6,-0.4,30.05,ESE,104,5.0,5.0,22,0.00,CLR,,0.00,WeatherDisplay:10.37,2013-02-12 21:15:00,
2013-02-12 14:20:00,35.2,-0.9,30.05,SE,128,4.6,4.6,21,0.00,CLR,,0.00,WeatherDisplay:10.37,2013-02-12 21:20:00,
2013-02-12 14:25:00,34.9,-2.2,30.05,SSE,160,8.1,8.1,20,0.00,CLR,,0.00,WeatherDisplay:10.37,2013-02-12 21:25:00,
2013-02-12 14:30:00,33.7,-2.2,30.05,ESE,118,4.6,4.6,21,0.00,CLR,,0.00,WeatherDisplay:10.37,2013-02-12 21:30:00,
2013-02-12 14:35:00,32.7,-2.0,30.06,SE,132,6.9,6.9,22,0.00,CLR,,0.00,WeatherDisplay:10.37,2013-02-12 21:35:00,
2013-02-12 14:40:00,32.8,-2.0,30.06,SE,124,5.8,5.8,22,0.00,CLR,,0.00,WeatherDisplay:10.37,2013-02-12 21:40:00,
2013-02-12 14:45:00,32.9,-1.9,30.08,ESE,104,5.8,5.8,22,0.00,CLR,,0.00,WeatherDisplay:10.37,2013-02-12 21:45:00,
2013-02-12 14:50:00,32.5,-2.2,30.08,SE,128,3.5,3.5,22,0.00,CLR,,0.00,WeatherDisplay:10.37,2013-02-12 21:50:00,
2013-02-12 14:55:00,32.4,-2.3,30.08,ESE,103,1.2,0.0,22,0.00,CLR,,0.00,WeatherDisplay:10.37,2013-02-12 21:55:00,
2013-02-12 15:00:00,33.5,-1.4,30.06,ESE,115,3.5,3.5,22,0.00,CLR,,0.00,WeatherDisplay:10.37,2013-02-12 22:00:00,
2013-02-12 15:05:00,34.1,-1.8,30.06,East,96,4.6,4.6,21,0.00,CLR,,0.00,WeatherDisplay:10.37,2013-02-12 22:05:00,
2013-02-12 15:10:00,33.7,-2.2,30.06,NE,49,6.9,6.9,21,0.00,CLR,,0.00,WeatherDisplay:10.37,2013-02-12 22:10:00,
2013-02-12 15:15:00,33.7,-1.2,30.07,North,2,6.0,6.0,22,0.00,CLR,,0.00,WeatherDisplay:10.37,2013-02-12 22:15:00,
2013-02-12 15:20:00,34.4,-1.6,30.07,North,2,4.6,4.6,21,0.00,CLR,,0.00,WeatherDisplay:10.37,2013-02-12 22:20:00,
2013-02-12 15:25:00,35.5,-1.7,30.07,North,357,8.1,8.1,20,0.00,CLR,,0.00,WeatherDisplay:10.37,2013-02-12 22:25:00,
2013-02-12 15:30:00,35.6,1.4,30.07,NNW,343,11.5,11.5,23,0.00,CLR,,0.00,WeatherDisplay:10.37,2013-02-12 22:30:00,
2013-02-12 15:35:00,35.3,2.0,30.05,West,268,11.0,11.0,24,0.00,CLR,,0.00,WeatherDisplay:10.37,2013-02-12 22:35:00,
2013-02-12 15:40:00,34.7,1.5,30.05,WNW,297,8.1,8.1,24,0.00,CLR,,0.00,WeatherDisplay:10.37,2013-02-12 22:40:00,
2013-02-12 15:45:00,34.4,1.3,30.07,West,259,11.5,11.5,24,0.00,CLR,,0.00,WeatherDisplay:10.37,2013-02-12 22:45:00,
2013-02-12 15:50:00,33.5,2.2,30.07,SW,220,16.1,16.1,26,0.00,CLR,,0.00,WeatherDisplay:10.37,2013-02-12 22:50:00,
2013-02-12 15:55:00,32.2,1.9,30.07,SW,223,18.4,18.4,27,0.00,CLR,,0.00,WeatherDisplay:10.37,2013-02-12 22:55:00,
2013-02-12 16:00:00,31.2,1.0,30.11,WSW,245,18.4,18.4,27,0.00,CLR,,0.00,WeatherDisplay:10.37,2013-02-12 23:00:00,
2013-02-12 16:05:00,30.9,0.8,30.11,SW,216,16.1,16.1,27,0.00,CLR,,0.00,WeatherDisplay:10.37,2013-02-12 23:05:00,
2013-02-12 16:10:00,30.9,0.8,30.11,SW,223,18.0,18.0,27,0.00,CLR,,0.00,WeatherDisplay:10.37,2013-02-12 23:10:00,
2013-02-12 16:15:00,30.7,0.6,30.11,SW,216,20.7,20.7,27,0.00,CLR,,0.00,WeatherDisplay:10.37,2013-02-12 23:15:00,
2013-02-12 16:20:00,30.7,0.6,30.11,WSW,248,11.5,11.5,27,0.00,CLR,,0.00,WeatherDisplay:10.37,2013-02-12 23:20:00,
2013-02-12 16:25:00,30.6,0.5,30.11,SW,227,13.8,13.8,27,0.00,CLR,,0.00,WeatherDisplay:10.37,2013-02-12 23:25:00,
2013-02-12 16:30:00,30.1,0.1,30.11,SW,234,16.0,16.0,27,0.00,CLR,,0.00,WeatherDisplay:10.37,2013-02-12 23:30:00,
2013-02-12 16:35:00,29.5,-0.4,30.11,SW,232,11.5,11.5,27,0.00,CLR,,0.00,WeatherDisplay:10.37,2013-02-12 23:35:00,
2013-02-12 16:40:00,29.0,-0.1,30.11,SW,223,11.5,11.5,28,0.00,CLR,,0.00,WeatherDisplay:10.37,2013-02-12 23:40:00,
2013-02-12 16:45:00,28.4,-0.6,30.13,WSW,256,12.7,12.7,28,0.00,CLR,,0.00,WeatherDisplay:10.37,2013-02-12 23:45:00,
2013-02-12 16:50:00,28.1,-0.9,30.13,WSW,238,12.0,12.0,28,0.00,CLR,,0.00,WeatherDisplay:10.37,2013-02-12 23:50:00,
2013-02-12 16:55:00,27.9,-1.1,30.13,SW,235,11.5,11.5,28,0.00,CLR,,0.00,WeatherDisplay:10.37,2013-02-12 23:55:00,
2013-02-12 17:00:00,27.9,-1.1,30.13,SSW,208,13.8,13.8,28,0.00,CLR,,0.00,WeatherDisplay:10.37,2013-02-13 00:00:00,
2013-02-12 17:05:00,27.8,-1.1,30.14,WSW,251,16.1,16.1,28,0.00,CLR,,0.00,WeatherDisplay:10.37,2013-02-13 00:05:00,
2013-02-12 17:10:00,27.6,-1.3,30.14,West,269,11.5,11.5,28,0.00,CLR,,0.00,WeatherDisplay:10.37,2013-02-13 00:10:00,
2013-02-12 17:15:00,27.3,-0.8,30.16,SW,223,11.5,11.5,29,0.00,CLR,,0.00,WeatherDisplay:10.37,2013-02-13 00:15:00,
2013-02-12 17:20:00,27.0,-1.1,30.16,WSW,249,13.8,13.8,29,0.00,CLR,,0.00,WeatherDisplay:10.37,2013-02-13 00:20:00,
2013-02-12 17:25:00,26.7,-1.4,30.16,SW,234,11.5,11.5,29,0.00,CLR,,0.00,WeatherDisplay:10.37,2013-02-13 00:25:00,
2013-02-12 17:30:00,26.6,-0.7,30.16,SW,227,12.7,12.7,30,0.00,CLR,,0.00,WeatherDisplay:10.37,2013-02-13 00:30:00,
2013-02-12 17:35:00,26.3,-1.0,30.16,WSW,242,11.5,11.5,30,0.00,CLR,,0.00,WeatherDisplay:10.37,2013-02-13 00:35:00,
2013-02-12 17:40:00,26.0,-0.6,30.16,SW,234,11.5,11.5,31,0.00,CLR,,0.00,WeatherDisplay:10.37,2013-02-13 00:40:00,
2013-02-12 17:45:00,25.4,-0.4,30.18,SW,232,17.0,17.0,32,0.00,CLR,,0.00,WeatherDisplay:10.37,2013-02-13 00:45:00,
2013-02-12 17:50:00,25.1,0.0,30.18,SW,224,16.1,16.1,33,0.00,CLR,,0.00,WeatherDisplay:10.37,2013-02-13 00:50:00,
2013-02-12 17:55:00,24.8,-0.3,30.18,SW,234,12.7,12.7,33,0.00,CLR,,0.00,WeatherDisplay:10.37,2013-02-13 00:55:00,
2013-02-12 18:00:00,24.7,-0.4,30.18,WSW,240,16.1,16.1,33,0.00,CLR,,0.00,WeatherDisplay:10.37,2013-02-13 01:00:00,
2013-02-12 18:05:00,24.4,-0.6,30.18,WSW,251,13.0,13.0,33,0.00,CLR,,0.00,WeatherDisplay:10.37,2013-02-13 01:05:00,
2013-02-12 18:10:00,24.4,0.0,30.18,West,272,16.1,16.1,34,0.00,CLR,,0.00,WeatherDisplay:10.37,2013-02-13 01:10:00,
2013-02-12 18:15:00,24.1,-0.3,30.19,SW,227,11.5,11.5,34,0.00,CLR,,0.00,WeatherDisplay:10.37,2013-02-13 01:15:00,
2013-02-12 18:20:00,23.9,-0.4,30.19,WSW,256,13.8,13.8,34,0.00,CLR,,0.00,WeatherDisplay:10.37,2013-02-13 01:20:00,
2013-02-12 18:25:00,23.8,-0.5,30.19,WSW,251,11.5,11.5,34,0.00,CLR,,0.00,WeatherDisplay:10.37,2013-02-13 01:25:00,
2013-02-12 18:30:00,23.6,-0.7,30.19,WSW,248,12.7,12.7,34,0.00,CLR,,0.00,WeatherDisplay:10.37,2013-02-13 01:30:00,
2013-02-12 18:35:00,23.3,-1.0,30.19,SW,232,11.5,11.5,34,0.00,CLR,,0.00,WeatherDisplay:10.37,2013-02-13 01:35:00,
2013-02-12 18:40:00,23.2,-1.1,30.19,WSW,249,11.5,11.5,34,0.00,CLR,,0.00,WeatherDisplay:10.37,2013-02-13 01:40:00,
2013-02-12 18:45:00,23.0,-1.2,30.20,WSW,241,14.0,14.0,34,0.00,CLR,,0.00,WeatherDisplay:10.37,2013-02-13 01:45:00,
2013-02-12 18:50:00,23.0,-1.2,30.20,WSW,238,13.8,13.8,34,0.00,CLR,,0.00,WeatherDisplay:10.37,2013-02-13 01:50:00,
2013-02-12 18:55:00,23.2,-1.1,30.20,WSW,238,17.3,17.3,34,0.00,CLR,,0.00,WeatherDisplay:10.37,2013-02-13 01:55:00,
2013-02-12 19:00:00,23.0,-1.2,30.20,WSW,251,11.5,11.5,34,0.00,CLR,,0.00,WeatherDisplay:10.37,2013-02-13 02:00:00,
2013-02-12 19:05:00,23.0,-1.2,30.20,West,278,13.8,13.8,34,0.00,CLR,,0.00,WeatherDisplay:10.37,2013-02-13 02:05:00,
2013-02-12 19:10:00,23.0,-1.2,30.20,SW,228,12.7,12.7,34,0.00,CLR,,0.00,WeatherDisplay:10.37,2013-02-13 02:10:00,
2013-02-12 19:15:00,23.2,-0.5,30.17,SW,227,13.8,13.8,35,0.00,CLR,,0.00,WeatherDisplay:10.37,2013-02-13 02:15:00,
2013-02-12 19:20:00,23.0,-0.6,30.17,SW,232,13.0,13.0,35,0.00,CLR,,0.00,WeatherDisplay:10.37,2013-02-13 02:20:00,
2013-02-12 19:25:00,23.0,-0.6,30.17,WSW,245,18.4,18.4,35,0.00,CLR,,0.00,WeatherDisplay:10.37,2013-02-13 02:25:00,
2013-02-12 19:30:00,23.0,-0.6,30.17,WNW,288,16.1,16.1,35,0.00,CLR,,0.00,WeatherDisplay:10.37,2013-02-13 02:30:00,
2013-02-12 19:35:00,22.9,-0.1,30.17,West,261,16.1,16.1,36,0.00,CLR,,0.00,WeatherDisplay:10.37,2013-02-13 02:35:00,
2013-02-12 19:40:00,23.0,0.0,30.17,WSW,238,18.4,18.4,36,0.00,CLR,,0.00,WeatherDisplay:10.37,2013-02-13 02:40:00,
2013-02-12 19:45:00,23.0,0.0,30.17,SW,228,12.7,12.7,36,0.00,CLR,,0.00,WeatherDisplay:10.37,2013-02-13 02:45:00,
2013-02-12 19:50:00,22.9,-0.1,30.17,WSW,252,16.0,16.0,36,0.00,CLR,,0.00,WeatherDisplay:10.37,2013-02-13 02:50:00,
2013-02-12 19:55:00,23.0,0.0,30.17,WSW,241,12.7,12.7,36,0.00,CLR,,0.00,WeatherDisplay:10.37,2013-02-13 02:55:00,
2013-02-12 20:00:00,22.7,0.3,30.17,WSW,240,17.3,17.3,37,0.00,CLR,,0.00,WeatherDisplay:10.37,2013-02-13 03:00:00,
2013-02-12 20:05:00,22.5,0.7,30.16,WSW,256,11.5,11.5,38,0.00,CLR,,0.00,WeatherDisplay:10.37,2013-02-13 03:05:00,
2013-02-12 20:10:00,22.7,0.9,30.16,SW,232,10.4,10.4,38,0.00,CLR,,0.00,WeatherDisplay:10.37,2013-02-13 03:10:00,
2013-02-12 20:15:00,23.3,0.2,30.13,West,264,13.8,13.8,36,0.00,CLR,,0.00,WeatherDisplay:10.37,2013-02-13 03:15:00,
2013-02-12 20:20:00,23.6,-0.1,30.13,SSW,210,19.6,19.6,35,0.00,CLR,,0.00,WeatherDisplay:10.37,2013-02-13 03:20:00,
2013-02-12 20:25:00,23.6,-0.1,30.13,WSW,247,13.8,13.8,35,0.00,CLR,,0.00,WeatherDisplay:10.37,2013-02-13 03:25:00,
2013-02-12 20:30:00,23.3,-0.4,30.13,WSW,244,21.9,21.9,35,0.00,CLR,,0.00,WeatherDisplay:10.37,2013-02-13 03:30:00,
2013-02-12 20:35:00,23.3,-0.4,30.13,SW,234,19.6,19.6,35,0.00,CLR,,0.00,WeatherDisplay:10.37,2013-02-13 03:35:00,
2013-02-12 20:40:00,23.2,-0.5,30.13,WSW,245,18.4,18.4,35,0.00,CLR,,0.00,WeatherDisplay:10.37,2013-02-13 03:40:00,
2013-02-12 20:45:00,23.2,-0.5,30.13,West,261,18.4,18.4,35,0.00,CLR,,0.00,WeatherDisplay:10.37,2013-02-13 03:45:00,
2013-02-12 20:50:00,23.2,-0.5,30.13,West,262,14.0,14.0,35,0.00,CLR,,0.00,WeatherDisplay:10.37,2013-02-13 03:50:00,
2013-02-12 20:55:00,23.3,-0.4,30.13,WSW,256,18.4,18.4,35,0.00,CLR,,0.00,WeatherDisplay:10.37,2013-02-13 03:55:00,
2013-02-12 21:00:00,23.3,-0.4,30.12,West,280,19.6,19.6,35,0.00,CLR,,0.00,WeatherDisplay:10.37,2013-02-13 04:00:00,
2013-02-12 21:05:00,23.5,-0.2,30.12,WSW,249,11.5,11.5,35,0.00,CLR,,0.00,WeatherDisplay:10.37,2013-02-13 04:05:00,
2013-02-12 21:10:00,23.5,-0.2,30.12,SW,221,13.8,13.8,35,0.00,CLR,,0.00,WeatherDisplay:10.37,2013-02-13 04:10:00,
2013-02-12 21:15:00,23.6,-0.1,30.07,WSW,258,11.5,11.5,35,0.00,CLR,,0.00,WeatherDisplay:10.37,2013-02-13 04:15:00,
2013-02-12 21:20:00,23.6,-0.1,30.07,SW,230,11.5,11.5,35,0.00,CLR,,0.00,WeatherDisplay:10.37,2013-02-13 04:20:00,
2013-02-12 21:25:00,23.8,0.7,30.07,WSW,237,13.8,13.8,36,0.00,CLR,,0.00,WeatherDisplay:10.37,2013-02-13 04:25:00,
2013-02-12 21:30:00,23.8,0.7,30.07,WSW,240,16.1,16.1,36,0.00,CLR,,0.00,WeatherDisplay:10.37,2013-02-13 04:30:00,
2013-02-12 21:35:00,23.6,1.1,30.08,SSW,199,10.4,10.4,37,0.00,CLR,,0.00,WeatherDisplay:10.37,2013-02-13 04:35:00,
2013-02-12 21:40:00,23.9,1.4,30.08,SW,217,18.4,18.4,37,0.00,CLR,,0.00,WeatherDisplay:10.37,2013-02-13 04:40:00,
2013-02-12 21:45:00,23.6,1.7,30.07,WSW,254,13.8,13.8,38,0.00,CLR,,0.00,WeatherDisplay:10.37,2013-02-13 04:45:00,
2013-02-12 21:50:00,23.2,1.9,30.07,SW,234,18.0,18.0,39,0.00,CLR,,0.00,WeatherDisplay:10.37,2013-02-13 04:50:00,
2013-02-12 21:55:00,23.3,2.5,30.07,SW,234,19.6,19.6,40,0.00,CLR,,0.00,WeatherDisplay:10.37,2013-02-13 04:55:00,
2013-02-12 22:00:00,23.5,2.7,30.07,WSW,247,16.1,16.1,40,0.00,CLR,,0.00,WeatherDisplay:10.37,2013-02-13 05:00:00,
2013-02-12 22:04:00,23.3,2.5,30.08,SW,227,16.1,16.1,40,0.00,CLR,,0.00,WeatherDisplay:10.37,2013-02-13 05:04:00,
2013-02-12 22:09:00,23.0,2.8,30.08,SW,230,18.4,18.4,41,0.00,CLR,,0.00,WeatherDisplay:10.37,2013-02-13 05:09:00,
2013-02-12 22:14:00,22.4,2.7,30.08,WSW,240,11.5,11.5,42,0.00,CLR,,0.00,WeatherDisplay:10.37,2013-02-13 05:14:00,
2013-02-12 22:19:00,22.5,2.8,30.06,SW,232,11.5,11.5,42,0.00,CLR,,0.00,WeatherDisplay:10.37,2013-02-13 05:19:00,
2013-02-12 22:24:00,22.5,2.8,30.06,SW,234,8.1,8.1,42,0.00,CLR,,0.00,WeatherDisplay:10.37,2013-02-13 05:24:00,
2013-02-12 22:29:00,22.5,2.3,30.06,SW,230,4.6,4.6,41,0.00,CLR,,0.00,WeatherDisplay:10.37,2013-02-13 05:29:00,
2013-02-12 22:34:00,22.4,2.7,30.06,WSW,252,12.7,12.7,42,0.00,CLR,,0.00,WeatherDisplay:10.37,2013-02-13 05:34:00,
2013-02-12 22:39:00,22.4,2.7,30.06,West,265,20.7,20.7,42,0.00,CLR,,0.00,WeatherDisplay:10.37,2013-02-13 05:39:00,
2013-02-12 22:44:00,22.2,2.6,30.06,WSW,238,10.4,10.4,42,0.00,CLR,,0.00,WeatherDisplay:10.37,2013-02-13 05:44:00,
2013-02-12 22:49:00,21.8,2.7,30.06,WSW,240,11.5,11.5,43,0.00,CLR,,0.00,WeatherDisplay:10.37,2013-02-13 05:49:00,
2013-02-12 22:54:00,21.8,2.7,30.06,SW,227,5.8,5.8,43,0.00,CLR,,0.00,WeatherDisplay:10.37,2013-02-13 05:54:00,
2013-02-12 22:59:00,21.9,2.8,30.06,SW,224,5.8,5.8,43,0.00,CLR,,0.00,WeatherDisplay:10.37,2013-02-13 05:59:00,
2013-02-12 23:04:00,21.8,2.7,30.06,West,271,13.0,13.0,43,0.00,CLR,,0.00,WeatherDisplay:10.37,2013-02-13 06:04:00,
2013-02-12 23:09:00,22.1,3.0,30.06,WSW,242,12.7,12.7,43,0.00,CLR,,0.00,WeatherDisplay:10.37,2013-02-13 06:09:00,
2013-02-12 23:14:00,22.2,3.1,30.06,West,259,13.8,13.8,43,0.00,CLR,,0.00,WeatherDisplay:10.37,2013-02-13 06:14:00,
2013-02-12 23:19:00,22.2,3.1,30.04,SSW,208,12.7,12.7,43,0.00,CLR,,0.00,WeatherDisplay:10.37,2013-02-13 06:19:00,
2013-02-12 23:24:00,22.2,2.6,30.04,WSW,252,17.3,17.3,42,0.00,CLR,,0.00,WeatherDisplay:10.37,2013-02-13 06:24:00,
2013-02-12 23:29:00,22.1,2.5,30.04,WSW,258,17.3,17.3,42,0.00,CLR,,0.00,WeatherDisplay:10.37,2013-02-13 06:29:00,
2013-02-12 23:34:00,21.9,2.3,30.03,SSW,196,11.5,11.5,42,0.00,CLR,,0.00,WeatherDisplay:10.37,2013-02-13 06:34:00,
2013-02-12 23:39:00,21.8,2.7,30.03,SSW,208,12.0,12.0,43,0.00,CLR,,0.00,WeatherDisplay:10.37,2013-02-13 06:39:00,
2013-02-12 23:44:00,21.9,2.3,30.03,SW,224,16.1,16.1,42,0.00,CLR,,0.00,WeatherDisplay:10.37,2013-02-13 06:44:00,
2013-02-12 23:49:00,21.8,2.2,30.04,WNW,293,12.7,12.7,42,0.00,CLR,,0.00,WeatherDisplay:10.37,2013-02-13 06:49:00,
2013-02-12 23:54:00,22.1,2.5,30.04,SW,221,12.7,12.7,42,0.00,CLR,,0.00,WeatherDisplay:10.37,2013-02-13 06:54:00,
2013-02-12 23:59:00,22.2,2.0,30.04,WSW,241,11.5,11.5,41,0.00,CLR,,0.00,WeatherDisplay:10.37,2013-02-13 06:59:00,